{"data":{"norad_id":56953,"intl_designator":"2023-084X","name":"RUNNER-1 (TYVAK-1005)","alt_names":[],"object_type":"PAYLOAD","status":"ACTIVE","operator":null,"country":"CHLE","launch_date":"2023-06-12","launch_site_code":"AFWTR","launch_vehicle":null,"mission":null,"orbit_class":"UNKNOWN","rcs_meters":null,"size_class":null,"mass_kg":null,"dimensions":null,"purposes":[],"wikipedia_slug":null,"has_3d_model":false,"image_url":null,"decayed_at":null,"tle_current":{"epoch":"2026-09-21T17:06:32.744736Z","epoch_age_seconds":94848,"freshness":"FRESH","line1":"1 56953U 23084X   26264.71287899  .00007290  00000+0  18859-3 0  9997","line2":"2 56953  97.6368  50.6801 0006979 337.4656  22.6281 15.39383711182445","mean_motion":15.39383711,"eccentricity":0.0006979,"inclination_deg":97.6368,"raan_deg":50.6801,"arg_perigee_deg":337.4656,"mean_anomaly_deg":22.6281,"bstar":0.00018859,"rev_number":18244,"period_min":93.543928632619,"perigee_km":443.16666558948,"apogee_km":452.69449071506,"semimajor_km":6826.0675781523,"source":"CELESTRAK","updated_at":"2026-09-22T09:00:25.993649Z"}}}